Flight Track Log - Related Links

Times and Time Zones

All times are in EST time to prevent confusion due to time zone crossing. See the N121JM flight status page for this flight to view local times or setup timezone preferences in your user account.

Time Position Orientation Groundspeed Altitude Reporting Facility
EST Latitude Longitude Course Direction KTS MPH feet Rate Location/Type
Sat 06:12:23 PM 33.6429 -117.8859 187° South 182 209 1,500  Level FlightAware ADS-B
Sat 06:12:40 PM 33.6265 -117.8875 185° South 193 222 2,100 1,941 Climbing FlightAware ADS-B
Sat 06:12:57 PM 33.6110 -117.8898 187° South 209 241 2,600 1,826 Climbing FlightAware ADS-B
Sat 06:13:26 PM 33.5803 -117.8974 192° South 229 264 3,500 1,745 Climbing FlightAware ADS-B
Sat 06:13:52 PM 33.5535 -117.9080 198° South 243 280 4,200 1,674 Climbing FlightAware ADS-B
Sat 06:14:09 PM 33.5400 -117.9196 216° Southwest 256 295 4,700 2,211 Climbing FlightAware ADS-B
Sat 06:14:30 PM 33.5168 -117.9403 217° Southwest 273 314 5,600 2,372 Climbing FlightAware ADS-B
Sat 06:14:52 PM 33.4927 -117.9599 214° Southwest 280 322 6,400 2,000 Climbing FlightAware ADS-B
Sat 06:15:09 PM 33.4762 -117.9738 215° Southwest 284 327 6,900 900 Climbing FlightAware ADS-B
Sat 06:15:52 PM 33.4287 -118.0141 215° Southwest 297 342 7,300 1,200 Climbing FlightAware ADS-B
Sat 06:16:14 PM 33.4046 -118.0338 214° Southwest 293 337 8,200 2,923 Climbing FlightAware ADS-B
Sat 06:16:31 PM 33.3846 -118.0512 216° Southwest 290 334 9,200 3,158 Climbing FlightAware ADS-B
Sat 06:16:52 PM 33.3647 -118.0766 227° Southwest 302 348 10,200 2,615 Climbing FlightAware ADS-B
Sat 06:17:10 PM 33.3546 -118.1029 245° Southwest 318 366 10,900 2,462 Climbing FlightAware ADS-B
Sat 06:17:31 PM 33.3481 -118.1417 259° West 332 382 11,800 3,632 Climbing FlightAware ADS-B
Sat 06:17:48 PM 33.3474 -118.1731 268° West 365 420 13,200 2,200 Climbing FlightAware ADS-B
Sat 06:19:31 PM 33.3771 -118.3810 280° West 399 459 16,200 1,831 Climbing FlightAware ADS-B
Sat 06:20:22 PM 33.4463 -118.4533 319° Northwest 411 473 17,900 2,579 Climbing FlightAware ADS-B
Sat 06:21:32 PM 33.5784 -118.4238 11° North 408 470 21,400 3,125 Climbing FlightAware ADS-B
Sat 06:21:58 PM 33.6253 -118.4119 12° North 401 461 22,900 2,480 Climbing FlightAware ADS-B
Sat 06:24:02 PM 33.8486 -118.4304 356° North 400 460 27,600 2,021 Climbing FlightAware ADS-B
Sat 06:25:08 PM 33.9550 -118.4439 356° North 407 468 29,300 1,559 Climbing Los Angeles Center
Sat 06:26:09 PM 34.0639 -118.4964 338° Northwest 421 484 30,900 1,561 Climbing Los Angeles Center
Sat 06:27:11 PM 34.1747 -118.5508 338° Northwest 427 491 32,500 1,415 Climbing Los Angeles Center
Sat 06:28:12 PM 34.2858 -118.6056 338° Northwest 431 496 33,800 732 Climbing Los Angeles Center
Sat 06:29:14 PM 34.4233 -118.6736 338° Northwest 443 510 34,000 97 Climbing Los Angeles Center
Sat 06:30:16 PM 34.5369 -118.7292 338° Northwest 441 507 34,000  Level Los Angeles Center
Sat 06:31:18 PM 34.6464 -118.7842 338° Northwest 429 494 34,000  Level Los Angeles Center
Sat 06:32:19 PM 34.7564 -118.8394 338° Northwest 427 491 34,000  Level Los Angeles Center
Sat 06:33:21 PM 34.8386 -118.8975 330° Northwest 439 505 34,000  Level Los Angeles Center
Sat 06:34:23 PM 34.9608 -119.0144 322° Northwest 436 502 34,000  Level Los Angeles Center
Sat 06:35:24 PM 35.0564 -119.1072 322° Northwest 440 506 34,000  Level Los Angeles Center
Sat 06:36:26 PM 35.1522 -119.2006 321° Northwest 443 510 34,000  Level Los Angeles Center
Sat 06:37:28 PM 35.2478 -119.2944 321° Northwest 442 509 34,000  Level Los Angeles Center
Sat 06:38:30 PM 35.3569 -119.4008 322° Northwest 423 487 34,000  Level Los Angeles Center
Sat 06:39:31 PM 35.4428 -119.4878 320° Northwest 407 468 34,000  Level Los Angeles Center
Sat 06:40:33 PM 35.5308 -119.5747 321° Northwest 407 468 34,000  Level Los Angeles Center
Sat 06:41:35 PM 35.6189 -119.6631 321° Northwest 409 471 34,000  Level Los Angeles Center
Sat 06:42:36 PM 35.7083 -119.7531 321° Northwest 415 478 34,000  Level Los Angeles Center
Sat 06:43:38 PM 35.7969 -119.8419 321° Northwest 415 478 34,000  Level Los Angeles Center
Sat 06:44:40 PM 35.9050 -119.9511 321° Northwest 419 482 34,000  Level Los Angeles Center
Sat 06:45:41 PM 35.9950 -120.0442 320° Northwest 424 488 34,000  Level Los Angeles Center
Sat 06:46:43 PM 36.0858 -120.1344 321° Northwest 422 486 34,000 -49 Level Los Angeles Center
Sat 06:47:44 PM 36.1756 -120.2281 320° Northwest 423 487 33,900 -1,049 Descending Los Angeles Center
Sat 06:49:06 PM 36.3039 -120.3539 322° Northwest 426 490 31,500 -1,804 Descending Oakland Center
Sat 06:50:07 PM 36.3944 -120.4450 321° Northwest 423 487 29,600 -1,869 Descending Oakland Center
Sat 06:51:08 PM 36.4853 -120.5397 320° Northwest 426 490 27,700 -1,820 Descending Oakland Center
Sat 06:52:09 PM 36.5725 -120.6317 320° Northwest 415 478 25,900 -1,882 Descending Oakland Center
Sat 06:57:56 PM 37.0415 -121.1530 320° Northwest 352 405 14,900 -1,909 Descending FlightAware ADS-B
Sat 06:58:45 PM 37.0989 -121.2190 317° Northwest 349 402 13,300 -2,019 Descending FlightAware ADS-B
Sat 06:59:43 PM 37.1678 -121.2990 317° Northwest 346 398 11,300 -1,655 Descending FlightAware ADS-B
Sat 07:00:41 PM 37.2330 -121.3750 317° Northwest 346 398 10,100 -1,091 Descending FlightAware ADS-B
Sat 07:01:00 PM 37.2535 -121.3990 317° Northwest 346 398 9,900 -612 Descending FlightAware ADS-B
Sat 07:01:30 PM 37.2837 -121.4340 317° Northwest 346 398 9,600 -1,161 Descending FlightAware ADS-B
Sat 07:02:33 PM 37.3456 -121.5050 318° Northwest 346 398 8,100 -1,257 Descending FlightAware ADS-B
Sat 07:03:15 PM 37.3853 -121.5520 317° Northwest 346 398 7,400 -1,017 Descending FlightAware ADS-B
Sat 07:03:32 PM 37.4018 -121.5710 318° Northwest 278 320 7,100 -727 Descending FlightAware ADS-B
Sat 07:03:48 PM 37.4163 -121.5880 317° Northwest 270 311 7,000 -375 Descending FlightAware ADS-B
Sat 07:04:04 PM 37.4306 -121.6050 317° Northwest 267 307 6,900 -154 Descending FlightAware ADS-B
Sat 07:04:27 PM 37.4507 -121.6290 317° Northwest 267 307 6,900  Level FlightAware ADS-B
Sat 07:04:44 PM 37.4660 -121.6470 317° Northwest 269 310 6,900  Level FlightAware ADS-B
Sat 07:05:02 PM 37.4827 -121.6660 318° Northwest 270 311 6,900  Level FlightAware ADS-B
Sat 07:05:18 PM 37.4978 -121.6840 317° Northwest 272 313 6,900  Level FlightAware ADS-B
Sat 07:05:33 PM 37.5120 -121.7010 316° Northwest 272 313 6,900  Level FlightAware ADS-B
Sat 07:05:51 PM 37.5282 -121.7200 317° Northwest 272 313 6,900  Level FlightAware ADS-B
Sat 07:06:07 PM 37.5432 -121.7370 318° Northwest 274 315 6,900  Level FlightAware ADS-B
Sat 07:06:23 PM 37.5574 -121.7540 316° Northwest 274 315 6,900  Level FlightAware ADS-B
Sat 07:06:46 PM 37.5774 -121.7810 313° West 275 316 6,900  Level FlightAware ADS-B
Sat 07:06:51 PM 37.5813 -121.7880 305° West 277 319 6,900  Level FlightAware ADS-B
Sat 07:07:03 PM 37.5890 -121.8060 298° West 277 319 6,900  Level FlightAware ADS-B
Sat 07:07:13 PM 37.5944 -121.8200 296° West 279 321 6,900 -720 Level FlightAware ADS-B
Sat 07:07:28 PM 37.6024 -121.8430 294° West 283 326 6,600 -1,355 Descending FlightAware ADS-B
Sat 07:07:44 PM 37.6108 -121.8660 295° West 282 325 6,200 -1,548 Descending FlightAware ADS-B
Sat 07:07:59 PM 37.6189 -121.8890 294° West 282 325 5,800 -1,600 Descending FlightAware ADS-B
Sat 07:08:14 PM 37.6271 -121.9110 295° West 281 323 5,400 -1,455 Descending FlightAware ADS-B
Sat 07:08:32 PM 37.6363 -121.9370 294° West 278 320 5,000 -1,455 Descending FlightAware ADS-B
Sat 07:08:47 PM 37.6442 -121.9600 293° West 276 318 4,600 -1,161 Descending FlightAware ADS-B
Sat 07:09:03 PM 37.6520 -121.9830 293° West 268 308 4,400 -387 Descending FlightAware ADS-B
Sat 07:09:18 PM 37.6597 -122.0040 295° West 252 290 4,400 -207 Level FlightAware ADS-B
Sat 07:09:32 PM 37.6656 -122.0220 292° West 240 276 4,300  Descending FlightAware ADS-B
Sat 07:09:46 PM 37.6712 -122.0400 291° West 213 245 4,400 -200 Climbing FlightAware ADS-B
Sat 07:10:02 PM 37.6765 -122.0560 293° West 189 217 4,200 -643 Descending FlightAware ADS-B
Sat 07:10:14 PM 37.6801 -122.0680 291° West 168 193 4,100 -1,000 Descending FlightAware ADS-B
Sat 07:10:26 PM 37.6836 -122.0780 294° West 158 182 3,800 -1,500 Descending FlightAware ADS-B
Sat 07:10:42 PM 37.6880 -122.0910 293° West 154 177 3,400 -1,615 Descending FlightAware ADS-B
Sat 07:10:52 PM 37.6909 -122.0990 295° West 151 174 3,100 -1,680 Descending FlightAware ADS-B
Sat 07:11:07 PM 37.6953 -122.1110 295° West 150 173 2,700 -1,565 Descending FlightAware ADS-B
Sat 07:11:15 PM 37.6974 -122.1180 291° West 151 174 2,500 -1,600 Descending FlightAware ADS-B
Sat 07:11:22 PM 37.6993 -122.1230 296° West 150 173 2,300 -1,636 Descending FlightAware ADS-B
Sat 07:11:37 PM 37.7028 -122.1360 289° West 148 170 1,900 -1,680 Descending FlightAware ADS-B
Sat 07:11:47 PM 37.7052 -122.1440 291° West 147 169 1,600 -1,600 Descending FlightAware ADS-B
Sat 07:11:52 PM 37.7063 -122.1480 289° West 147 169 1,500 -1,800 Descending FlightAware ADS-B
Sat 07:11:57 PM 37.7077 -122.1520 294° West 145 167 1,300 -1,714 Descending FlightAware ADS-B
Sat 07:12:13 PM 37.7119 -122.1640 294° West 146 168 900 -1,636 Descending FlightAware ADS-B
Sat 07:12:30 PM 37.7162 -122.1780 291° West 145 167 400 -1,765 Descending FlightAware ADS-B
Sat 07:13:17 PM 37.7272 -122.2120 292° West 139 160 -511 Descending FlightAware ADS-B

Login

Don't have an account? Register now (free) for customized features, flight alerts, and more!